Regional Weather Roundup
Issued by NWS

Home | Current Version | Previous Version | Graphics & Text | Print | Product List | Glossary On
Versions: 1 2 3 4 5 6 7 8 9 10 11 12 13 14 15 16 17 18 19 20 21 22 23 24 25 26 27 28 29 30 31 32 33 34 35 36 37 38 39 40 41 42 43 44 45 46 47 48 49 50
000
ASUS43 KLOT 180403
RWRIL

ILLINOIS REGIONAL WEATHER ROUNDUP
NATIONAL WEATHER SERVICE CHICAGO/ROMEOVILLE IL
1000 PM CST FRI NOV 17 2017

NOTE: "FAIR" INDICATES FEW OR NO CLOUDS BELOW 12,000 FEET WITH NO
SIGNIFICANT WEATHER AND/OR OBSTRUCTIONS TO VISIBILITY.

* THESE STATIONS ARE NOT UNDER NWS QUALITY CONTROL. THEY ALSO MAY NOT
  REPORT WEATHER SUCH AS PRECIPITATION OR FOG.

ILZ001-002-007-009-015-016-024-180500-
NORTHWEST ILLINOIS

CITY           SKY/WX    TMP DP  RH WIND       PRES   REMARKS
MOLINE         CLOUDY    51  46  83 S3        29.55S
STERLING*        N/A    N/A N/A N/A MISG        N/A
SAVANNA*       DRIZZLE   42  42  99 NW5       29.58S
$$

ILZ003-004-008-010-011-017-018-180500-
NORTH CENTRAL ILLINOIS

CITY           SKY/WX    TMP DP  RH WIND       PRES   REMARKS
ROCKFORD       LGT RAIN  43  42  97 S3        29.59F FOG
FREEPORT*      DRZL/FOG  41  41 100 CALM      29.59S VSB 1
ROCHELLE*      DRIZZLE   43  43 100 S5        29.58F
DE KALB*       DRIZZLE   44  44 100 S10       29.58F
PERU*          CLOUDY    47  45  92 S18       29.58F FOG
$$

ILZ005-006-012>014-019>023-180500-
NORTHEAST ILLINOIS

CITY           SKY/WX    TMP DP  RH WIND       PRES   REMARKS
CHICAGO-OHARE  LGT RAIN  46  43  89 SW15      29.58F FOG
CHICAGO-MIDWAY LGT RAIN  47  45  93 SW13      29.59F FOG
AURORA         LGT RAIN  46  45  96 S12       29.58F FOG
LANSING*       CLOUDY    46  45  95 SW15G22   29.61F
JOLIET*        CLOUDY    48  46  92 S13       29.59F
WAUKEGAN       LGT RAIN  44  44 100 SW8       29.58S FOG
DUPAGE AIRPORT LGT RAIN  45  45 100 S12       29.57F FOG
KANKAKEE*      CLOUDY    46  43  88 SW16G26   29.62F
WHEELING       LGT RAIN  46  45  96 SW9       29.59F FOG
MORRIS*        CLOUDY    47  44  91 S14       29.58F FOG
ROMEOVILLE*    CLOUDY    46  44  93 SW15G25   29.59F FOG
NORTHERLY ISL    N/A     45  42  89 S10         N/A
$$

LMZ740>746-180500-
SOUTHERN LAKE MICHIGAN

STATION/POSITION SKY/WX   TEMP    WIND        PRES    VSBY  WAVE
                          AIR SEA DIR/SP/G                  HT/PER
                          (F)     (DEG/KT/KT) (MB)    (MI)  (FT/S)
SOUTHERN BUOY              46 50  200/ 23/ 29 1002.9          7/ 6
HARRISON CRIB              46     200/ 22/ 25   N/A
BURNHAM HARBOR             46     180/ 11/ 15   N/A
BURNS HARBOR               43     180/ 15/ 20 1003.7S
MICHIGAN CITY              42     170/ 10/ 11   N/A
$$

ILZ025>027-034>036-040-047-049-050-058-095>099-180500-
WEST-CENTRAL ILLINOIS

CITY           SKY/WX    TMP DP  RH WIND       PRES   REMARKS
QUINCY         CLOUDY    58  53  84 S8        29.54F
GALESBURG*     CLOUDY    53  49  89 S10       29.57S
MACOMB*        CLOUDY    53  49  86 S14       29.57S
JACKSONVILLE*  CLOUDY    56  50  81 S13       29.57F
PITTSFIELD*    CLOUDY    56  53  88 S10       29.56F
$$

ILZ028>032-037-038-041>044-048-051>054-059>061-180500-
CENTRAL ILLINOIS

CITY           SKY/WX    TMP DP  RH WIND       PRES   REMARKS
PONTIAC        DRIZZLE   47  47  98 S14       29.60F
BLOOMINGTON    LGT RAIN  49  45  86 S18       29.60F
DECATUR        CLOUDY    50  44  80 S16       29.62F
PEORIA         CLOUDY    52  48  86 S13G22    29.58F
LACON*         CLOUDY    50  47  89 S9G16     29.57S
LINCOLN*       CLOUDY    50  46  84 S15       29.60F
SPRINGFIELD    CLOUDY    52  46  80 S15       29.60F
TAYLORVILLE    CLOUDY    51  45  80 S14       29.61F
$$

ILZ033-039-045-046-055>057-062-063-180500-
EAST-CENTRAL ILLINOIS

CITY           SKY/WX    TMP DP  RH WIND       PRES   REMARKS
CHAMPAIGN      CLOUDY    49  44  83 S17       29.63F
DANVILLE*      CLOUDY    49  40  73 S15G26    29.62F
RANTOUL*       LGT RAIN  49  46  88 S14       29.63F
MATTOON        CLOUDY    52  43  71 S14G21    29.65F
PARIS*         CLOUDY    50  42  74 S20       29.67F
$$

ILZ079-100>102-180500-
SOUTHWEST ILLINOIS

CITY           SKY/WX    TMP DP  RH WIND       PRES   REMARKS
ALTON          CLOUDY    59  52  77 S13G20    29.62F
BELLEVILLE     CLOUDY    60  52  74 S9        29.61F
CAHOKIA*       CLOUDY    59  50  72 S8        29.61F
SPARTA*        CLOUDY    62  54  75 S16G22    29.66F
$$

ILZ064>066-069>071-074>076-080>082-084>086-088>090-092>094-180500-
SOUTH-CENTRAL ILLINOIS

CITY           SKY/WX    TMP DP  RH WIND       PRES   REMARKS
CARBONDALE     CLOUDY    63  54  72 S16G25    29.70F
CAIRO*         CLOUDY    64  54  71 S16G25    29.73S
EFFINGHAM*     CLOUDY    54  45  72 SE8       29.69F
MARION         CLOUDY    64  53  68 S18       29.71F
MT. VERNON     CLOUDY    59  50  72 S10       29.68F
CENTRALIA*     CLOUDY    59  50  71 S13G18    29.65F
SALEM*         CLOUDY    58  47  65 S12       29.66F
METROPOLIS*    CLOUDY    64  53  66 S12G17    29.75F
$$

ILZ067-068-072-073-078-083-087-091-180500-
SOUTHEAST ILLINOIS

CITY           SKY/WX    TMP DP  RH WIND       PRES   REMARKS
LAWRENCEVILLE  CLOUDY    54  42  64 S14       29.72F
FLORA*         CLOUDY    56  45  66 S13       29.68F
FAIRFIELD*     CLOUDY    57  45  64 S8        29.69F
HARRISBURG*    CLOUDY    63  52  67 S15G21    29.73F
ROBINSON*      CLOUDY    54  41  61 S15G22    29.71F
CARMI*         CLOUDY    55  44  68 SE12      29.72F
$$

ABBREVIATIONS USED IN REMARKS
   TC - TEMPERATURE IN CELSIUS
  WCI - WIND CHILL INDEX
   HX - HEAT INDEX
  VSB - VISIBILITY
$$





USA.gov is the U.S. government's official web portal to all federal, state and local government web resources and services.